Location: Moscow
(55.7500°N, 37.5830°E)
Time: 09:33:59
(UTC+03:00)

Vanguard 1 Rocket - Pass Details

Date: 02 December 2021
Orbit: 651 x 4224 km, 34.3° (Epoch: 23 January)

Event Time Altitude Azimuth Distance (km) Brightness Sun altitude
Exits shadow 02:13:16 18° 138° (SE) 4,529 10.8 -50.1°
Maximum altitude 02:13:54 18° 135° (SE) 4,595 10.9 -50.1°
Drops below altitude 10° 02:23:54 10° 102° (ESE) 6,234 11.9 -49.1°
Sets 02:32:17 0° 88° (E) 7,889 12.7 -48.2°
